Regional Weather Roundup
Issued by NWS Raleigh/Durham, NC

Current Version | Previous Version | Text Only | Print | Product List | Glossary On
Versions: 1 2 3 4 5 6 7 8 9 10 11 12 13 14 15 16 17 18 19 20 21 22 23 24 25 26 27 28 29 30 31 32 33 34 35 36 37 38 39 40 41 42 43 44 45 46 47 48 49 50
000
ASUS42 KRAH 201810
RWRRAH
NORTH CAROLINA WEATHER ROUNDUP
NATIONAL WEATHER SERVICE RALEIGH NC
200 PM EDT THU JUL 20 2017

NOTE: "FAIR" INDICATES FEW OR NO CLOUDS BELOW 12,000 FEET WITH NO
SIGNIFICANT WEATHER AND/OR OBSTRUCTIONS TO VISIBILITY.

NCZ001-053-055-056-065-067-201900-
WESTERN NORTH CAROLINA

CITY           SKY/WX    TMP DP  RH WIND       PRES   REMARKS
ASHEVILLE      MOSUNNY   87  67  51 N8        30.18F
JEFFERSON      SUNNY     81  59  47 NW3       30.24S
HICKORY        SUNNY     91  68  46 CALM      30.11F HX  95
RUTHERFORDTON  MOSUNNY   90  68  48 W3        30.12F
MOUNT AIRY     SUNNY     92  66  42 S6        30.12F HX  95
BOONE          SUNNY     83  57  41 W10G17    30.25S
$$

NCZ021-022-025-041-071-084-088-201900-
CENTRAL NORTH CAROLINA

CITY           SKY/WX    TMP DP  RH WIND       PRES   REMARKS
CHARLOTTE      MOSUNNY   93  69  45 N7        30.09F HX  98
GREENSBORO     PTSUNNY   91  66  43 CALM      30.07F
WINSTON-SALEM  PTSUNNY   92  64  39 CALM      30.09F
RALEIGH-DURHAM PTSUNNY   96  64  34 VRB6      30.05F HX  98
FORT BRAGG     SUNNY     94  66  39 CALM      30.04F HX  97
FAYETTEVILLE   MOSUNNY   96  74  48 SE7       30.04F HX 107
BURLINGTON     SUNNY     94  67  41 NW7       30.06F HX  97
LAURINBURG     MOSUNNY   92  75  57 VRB6      30.06F HX 103
$$

NCZ011-015-027-028-043-044-047-080-103-201900-
NORTHEASTERN NORTH CAROLINA

CITY           SKY/WX    TMP DP  RH WIND       PRES   REMARKS
ROCKY MT-WILSO SUNNY     92  68  45 CALM      30.05F HX  96
GREENVILLE     SUNNY     91  68  46 SW6       30.06F HX  95
WASHINGTON     MOSUNNY   88  70  55 CALM      30.05F
ELIZABETH CITY MOSUNNY   88  77  69 S7        30.03F HX 100
MANTEO         CLOUDY    85  73  66 SW9       30.06S
CAPE HATTERAS  SUNNY     86  74  67 SW6       30.06F
$$

NCZ078-087-090-091-093-098-101-201900-
SOUTHEASTERN NORTH CAROLINA

CITY           SKY/WX    TMP DP  RH WIND       PRES   REMARKS
LUMBERTON      SUNNY     92  72  51 CALM      30.05F HX  99
GOLDSBORO      PTSUNNY   91  71  52 CALM      30.03F HX  97
KINSTON        MOSUNNY   91  70  49 CALM      30.05F HX  97
KENANSVILLE    PTSUNNY   90  70  51 CALM      30.06F HX  95
NEW BERN       MOSUNNY   88  73  61 E7        30.06F HX  95
CHERRY POINT   PTSUNNY   89  74  60 S5        30.06F HX  98
BEAUFORT       SUNNY     86  75  69 S9        30.06F HX  95
JACKSONVILLE   MOSUNNY   90  74  59 E7        30.05F HX  99
WILMINGTON     MOSUNNY   88  75  65 SE8       30.06F HX  97
$$




USA.gov is the U.S. government's official web portal to all federal, state and local government web resources and services.